Regional Weather Roundup
Issued by NWS

Home | Current Version | Previous Version | Graphics & Text | Print | Product List | Glossary On
Versions: 1 2 3 4 5 6 7 8 9 10 11 12 13 14 15 16 17 18 19 20 21 22 23 24 25 26 27 28 29 30 31 32 33 34 35 36 37 38 39 40 41 42 43 44 45 46 47 48 49 50
000
ASUS45 KABQ 310801
RWRNM
WEATHER ROUNDUP FOR NEW MEXICO
NATIONAL WEATHER SERVICE ALBUQUERQUE NM
200 AM MDT SUN AUG 31 2014

NOTE: "FAIR" MEANS FEW OR NO CLOUDS BELOW 12,000 FEET AGL WITH NO
       SIGNIFICANT WEATHER OR OBSTRUCTIONS TO VISION.

      THIS PRODUCT IS RELEASED AS TWO VERSIONS.  ONE VERSION NEAR
      THE TOP OF THE HOUR CONTAINING PRELIMINARY DATA FROM ALBUQUERQUE
      AND OTHER STATIONS.  A FINAL VERSION WITH ADDITIONAL DATA IS
      ISSUED ABOUT 10 MINUTES AFTER THE HOUR.

NMZ501-503-504-510>518-310900-
NORTHWEST PLATEAU/NORTHCENTRAL MOUNTAINS

CITY           SKY/WX    TMP DP  RH WIND       PRES   REMARKS
FARMINGTON     CLEAR     60  39  45 CALM      30.03S
LOS ALAMOS     CLEAR     66  37  33 S6        30.17F
SANTA FE       CLEAR     63  41  44 CALM      30.11F
ANGEL FIRE     FAIR      40  35  84 CALM      30.27F

$$
NMZ402-403-502-505>509-310900-
WESTCENTRAL MOUNTAINS/SOUTHWEST MOUNTAINS

CITY           SKY/WX    TMP DP  RH WIND       PRES   REMARKS
GALLUP         CLEAR     57  29  34 NE3       30.16S
SILVER CITY    CLEAR     66  39  37 NW7       30.12S

$$
NMZ407-409-411-412-310900-
SOUTHERN DESERTS

CITY           SKY/WX    TMP DP  RH WIND       PRES   REMARKS
LORDSBURG      FAIR      73  43  33 SE5       30.02S
DEMING         CLEAR     73  44  35 SW7       30.02R
LAS CRUCES     CLEAR     75  40  27 SW8       30.04R
HOLLOMAN AFB   CLEAR     73  43  33 SE10      29.99R
ALAMOGORDO     CLEAR     68  43  40 S3        30.01S
T OR C         CLEAR     73  43  33 VRB5      30.05R

$$
NMZ519>523-310900-
CENTRAL VALLEYS/CENTRAL HIGHLANDS

CITY           SKY/WX    TMP DP  RH WIND       PRES   REMARKS
ALBUQUERQUE    PTCLDY    73  41  31 S10       30.06S
DOUBLE EAGLE   PTCLDY    69  37  30 W13       30.09S
CLINES CORNERS CLEAR     63  40  42 SW15      30.17F
BELEN          FAIR      69  42  36 SW9       30.06S
SOCORRO        FAIR      67  46  45 S5        30.04F

$$
NMZ524>526-539-540-310900-
SOUTHCENTRAL MOUNTAINS

CITY           SKY/WX    TMP DP  RH WIND       PRES   REMARKS
RUIDOSO        NOT AVBL

$$
NMZ527>531-310900-
NORTHEAST HIGHLANDS/NORTHEAST PLAINS

CITY           SKY/WX    TMP DP  RH WIND       PRES   REMARKS
LAS VEGAS      MOCLDY    62  39  42 S12       30.15F
RATON          PTCLDY    57  40  52 NW5       30.08S
CLAYTON        PTCLDY    69  47  45 S13       30.00S

$$
NMZ532>537-310900-
EASTCENTRAL PLAINS

CITY           SKY/WX    TMP DP  RH WIND       PRES   REMARKS
TUCUMCARI      CLEAR     77  42  28 SW15      29.97R
CANNON AFB     CLEAR     70  49  46 S9        30.04R
CLOVIS AIRPORT   N/A     66  48  52 S7        30.06S

$$
NMZ028-029-538-310900-
SOUTHEAST PLAINS

CITY           SKY/WX    TMP DP  RH WIND       PRES   REMARKS
ROSWELL        CLEAR     71  46  40 S8        29.99R
CARLSBAD       CLEAR     78  55  44 S9        29.98R
HOBBS          CLEAR     75  59  57 S10       30.03S


$$


USA.gov is the U.S. government's official web portal to all federal, state and local government web resources and services.